Weather History for KTRI - March, 2014

Change the Weather History Date:

Monday, March 3, 2014

  Actual Average Record
Temperature  
Mean Temperature 38 °F 43 °F  
Max Temperature 53 °F 55 °F 79 °F (1976)
Min Temperature 23 °F 31 °F -2 °F (1980)
Degree Days  
Heating Degree Days 27 22  
Month to date heating degree days 58 66  
Since 1 July heating degree days 3553 3448  
Cooling Degree Days 0 0  
Month to date cooling degree days 0 0  
Year to date cooling degree days 0 0  
Moisture  
Dew Point 28 °F    
Average Humidity 81    
Maximum Humidity 93    
Minimum Humidity 68    
Precipitation  
Precipitation 0.93 in 0.11 in 1.11 in (1999)
Month to date precipitation 1.01 0.33  
Year to date precipitation 6.07 7.15  
Snow  
Snow 0.20 in 0.10 in - ()
Month to date snowfall 0.2 0.2  
Since 1 July snowfall 12.5 11.0  
Snow Depth 0.00 in    
Sea Level Pressure  
Sea Level Pressure 30.01 in    
Wind  
Wind Speed 9 mph (North)    
Max Wind Speed 16 mph    
Max Gust Speed 24 mph    
Visibility 4 miles    
Events Fog , Rain , Snow    
T = Trace of Precipitation, MM = Missing Value Source: NWS Daily Summary

Daily Weather History Graph

Daily Weather History Graph

Search for Another Location

Airport or City:

Trip Planner

Search our weather history database for the weather conditions in past years. The results will help you decide how hot, cold, wet, or windy it might be!

Date:

Astronomy

Mar. 03, 2014 Rise Set
Actual Time 6:57 AM EST 6:26 PM EST
Civil Twilight 6:31 AM EST 6:51 PM EST
Nautical Twilight 6:01 AM EST 7:21 PM EST
Astronomical Twilight 5:31 AM EST 7:51 PM EST
Moon 8:10 AM EST (3/3) 9:21 PM EST (3/3)
Length of Visible Light 12h 20m
Length of Day
11h 28m
Waxing Crescent, 8% of the Moon is Illuminated
Mar 3
Waxing Crescent
Mar 8
First Quarter
Mar 16
Full
Mar 23
Last Quarter
Mar 30
New

Hourly Weather History & Observations

Time (EST) Temp. Windchill Dew Point Humidity Pressure Visibility Wind Dir Wind Speed Gust Speed Precip Events Conditions
12:08 AM 53.1 °F - 50.0 °F 89% 29.89 in 4.0 mi WSW 3.5 mph - 0.00 in Rain Light Rain
12:53 AM 53.1 °F - 50.0 °F 89% 29.84 in 3.0 mi SW 3.5 mph - 0.02 in Rain Light Rain
1:00 AM 53.1 °F - 50.0 °F 89% 29.89 in 2.0 mi SW 3.5 mph - 0.00 in Rain Light Rain
1:20 AM 52.0 °F - 50.0 °F 93% 29.87 in 0.5 mi Calm Calm - 0.02 in Fog , Rain Light Rain
1:53 AM 53.1 °F - 50.0 °F 89% 29.83 in 0.5 mi West 5.8 mph - 0.08 in Fog , Rain Heavy Rain
2:53 AM 48.9 °F - 46.0 °F 90% 29.81 in 0.5 mi North 15.0 mph 19.6 mph 0.19 in Fog , Rain Rain
3:00 AM 46.0 °F 39.3 °F 43.0 °F 89% 29.86 in 2.0 mi North 16.1 mph 21.9 mph 0.04 in Rain Heavy Rain
3:53 AM 39.0 °F 33.4 °F 34.0 °F 82% 29.82 in 6.0 mi NNE 8.1 mph 17.3 mph 0.14 in Rain Light Rain
4:53 AM 37.0 °F 31.0 °F 33.1 °F 86% 29.83 in 6.0 mi NE 8.1 mph - 0.10 in Rain Rain
5:00 AM 37.0 °F 31.0 °F 33.1 °F 86% 29.87 in 6.0 mi NNE 8.1 mph - 0.01 in Rain Rain
5:53 AM 37.0 °F 33.3 °F 33.1 °F 86% 29.87 in 5.0 mi North 4.6 mph - 0.11 in Rain Rain
6:53 AM 36.0 °F 30.3 °F 32.0 °F 86% 29.88 in 5.0 mi NNE 6.9 mph - 0.19 in Rain Rain
7:53 AM 37.0 °F 33.3 °F 32.0 °F 82% 29.89 in 8.0 mi NNE 4.6 mph - 0.04 in Rain Light Rain
8:53 AM 36.0 °F 28.5 °F 30.0 °F 79% 29.90 in 8.0 mi North 10.4 mph 18.4 mph 0.00 in   Overcast
9:53 AM 32.0 °F 22.1 °F 26.1 °F 79% 29.94 in 7.0 mi North 13.8 mph - 0.00 in Rain Light Rain
10:03 AM 30.9 °F 21.7 °F 26.1 °F 82% 29.97 in 2.5 mi North 11.5 mph - 0.00 in Rain Light Freezing Rain
10:07 AM 30.9 °F 20.7 °F 26.1 °F 82% 29.97 in 2.5 mi North 13.8 mph 19.6 mph 0.00 in Rain Light Freezing Rain
10:49 AM 30.2 °F 20.2 °F 26.6 °F 86% 29.99 in 2.5 mi North 12.7 mph - 0.00 in Rain Light Freezing Rain
10:53 AM 30.0 °F 20.5 °F 25.0 °F 82% 29.98 in 2.5 mi NNE 11.5 mph 21.9 mph 0.00 in Rain Light Freezing Rain
11:53 AM 30.0 °F 20.5 °F 25.0 °F 82% 30.01 in 2.5 mi NNW 11.5 mph 20.7 mph 0.00 in Rain Light Freezing Rain
12:05 PM 28.9 °F 19.2 °F 24.1 °F 82% 30.03 in 3.0 mi North 11.5 mph - 0.00 in Rain Light Freezing Rain
12:12 PM 28.9 °F 19.2 °F 24.1 °F 82% 30.03 in 2.5 mi North 11.5 mph - 0.00 in Snow Light Snow
12:28 PM 28.9 °F 20.4 °F 24.1 °F 82% 30.03 in 0.8 mi NNE 9.2 mph - 0.02 in Snow Light Snow
12:36 PM 28.9 °F 22.8 °F 24.1 °F 82% 30.04 in 0.8 mi NNE 5.8 mph - 0.03 in Snow Light Snow
12:42 PM 28.9 °F 22.8 °F 24.1 °F 82% 30.05 in 1.5 mi NNE 5.8 mph - 0.04 in Snow Light Snow
12:53 PM 28.9 °F 21.1 °F 24.1 °F 82% 30.02 in 1.5 mi NNE 8.1 mph - 0.04 in Snow Light Snow
1:53 PM 30.0 °F 20.5 °F 24.1 °F 79% 30.03 in 1.5 mi North 11.5 mph - 0.00 in Snow Light Snow
2:41 PM 30.0 °F 22.4 °F 25.0 °F 82% 30.04 in 1.8 mi North 8.1 mph - 0.01 in Snow Light Snow
2:53 PM 30.0 °F 21.7 °F 24.1 °F 79% 30.03 in 1.8 mi North 9.2 mph - 0.01 in Snow Light Snow
3:36 PM 30.0 °F 23.2 °F 23.0 °F 75% 30.06 in 1.8 mi North 6.9 mph - 0.00 in Snow Light Snow
3:43 PM 28.9 °F 19.2 °F 23.0 °F 78% 30.07 in 2.0 mi NNW 11.5 mph - 0.00 in Snow Light Snow
3:53 PM 28.0 °F 17.0 °F 21.9 °F 78% 30.08 in 1.0 mi North 13.8 mph - 0.00 in Snow Light Snow
4:02 PM 28.0 °F 19.3 °F 21.9 °F 78% 30.08 in 0.8 mi North 9.2 mph - 0.01 in Snow Light Snow
4:53 PM 27.0 °F 17.3 °F 19.9 °F 75% 30.13 in 10.0 mi North 10.4 mph - 0.01 in   Overcast
5:29 PM 26.1 °F 16.8 °F 18.0 °F 71% 30.15 in 10.0 mi North 9.2 mph 18.4 mph N/A   Overcast
5:53 PM 26.1 °F 15.6 °F 18.0 °F 71% 30.17 in 10.0 mi North 11.5 mph 18.4 mph N/A   Overcast
6:53 PM 25.0 °F 18.1 °F 18.0 °F 75% 30.20 in 10.0 mi North 5.8 mph - N/A   Overcast
7:53 PM 24.1 °F 15.2 °F 16.0 °F 71% 30.21 in 10.0 mi NNE 8.1 mph - N/A   Overcast
8:53 PM 24.1 °F 15.2 °F 16.0 °F 71% 30.24 in 10.0 mi North 8.1 mph - N/A   Overcast
9:53 PM 23.0 °F 13.1 °F 16.0 °F 74% 30.23 in 10.0 mi North 9.2 mph - N/A   Overcast
10:53 PM 23.0 °F 13.9 °F 15.1 °F 72% 30.25 in 10.0 mi NNE 8.1 mph - N/A   Overcast
11:53 PM 23.0 °F 15.8 °F 16.0 °F 74% 30.25 in 10.0 mi NNE 5.8 mph - N/A   Overcast